View Data : List Evapotranspiration (ETo ) Reports


 
Search Evapotranspiration Reports
Station Fields:
Location:
Date Range:
Start Date:
End Date:
Searched: Report date on 5/5/2026.
Showing 40 Records.    
DateTimeStation NumberStation NameGaugeReadingRefill LevelEvap AmtView
5/5/2026  5:00 AM  NY-CQ-22  Fredonia 0.8 WNW 1.18  0.16   View
5/5/2026  5:30 AM  AL-MD-90  Huntsville 3.7 ENE 5.90  0.14   View
5/5/2026  6:00 AM  PA-YR-37  East Berlin 3.4 ESE 3.18  0.07   View
5/5/2026  6:00 AM  WA-SJ-28  Lopez Island 3.9 NNE 3.19  0.15   View
5/5/2026  6:00 AM  CAN-BC-28  Penticton 3.4 NNE 0.15  0.03   View
5/5/2026  6:30 AM  OH-DR-1  Bradford 2.3 NW 3.68  0.18   View
5/5/2026  6:45 AM  IA-TY-2  New Market 4.7 N 2.43  0.19   View
5/5/2026  6:50 AM  TX-BXR-168  Hollywood Park 4.3 ENE 1.93  0.12   View
5/5/2026  6:51 AM  MA-WR-28  Berlin 1.3 WSW 0.87  0.10   View
5/5/2026  7:00 AM  IL-DK-28  De Kalb 0.7 SW 6.20  0.20   View
5/5/2026  7:00 AM  IL-GY-1  Carbon Hill 3.1 N 1.16  0.16   View
5/5/2026  7:00 AM  IL-WF-14  El Paso 5.2 NNW 0.99  0.15   View
5/5/2026  7:00 AM  IN-HR-5  Milltown 5.7 SSE 5.21  0.13   View
5/5/2026  7:00 AM  IN-OW-9  Spencer 7.0 S 3.22  0.04   View
5/5/2026  7:00 AM  IA-BT-16  Shellsburg 2.9 S 1.76  0.16   View
5/5/2026  7:00 AM  IA-CL-4  Murray 1.7 W 1.93  0.12   View
5/5/2026  7:00 AM  IA-LN-7  Central City 6.7 W 0.82  0.13   View
5/5/2026  7:00 AM  KS-RL-1  Manhattan 0.5 NE 3.49  0.19   View
5/5/2026  7:00 AM  ME-YK-2  Kittery Point 0.8 WSW 0.39  0.13   View
5/5/2026  7:00 AM  MD-HR-23  Norrisville 0.6 WSW 2.07  0.16   View
5/5/2026  7:00 AM  MA-BE-35  Becket 4.4 SSE 1.16  0.12   View
5/5/2026  7:00 AM  OH-PB-1  Eaton 1.0 N 3.82  0.14   View
5/5/2026  7:00 AM  PA-MT-85  Skippack 2.6 ESE 0.39  0.11   View
5/5/2026  7:00 AM  SC-CR-49  NWS Charleston SC 3.70  0.16   View
5/5/2026  7:00 AM  TN-PT-3  Byrdstown 2.8 SSW 7.56  0.18   View
5/5/2026  7:00 AM  TN-WN-10  Green Hill 0.3 N 6.72  0.22   View
5/5/2026  7:00 AM  TX-TV-9  West Lake Hills 2.4 NNW 6.61  0.09   View
5/5/2026  7:00 AM  UT-ML-1  Oak City 0.3 SSE 1.15  0.20   View
5/5/2026  7:00 AM  WA-WC-52  Bellingham 2.3 S 1.89  0.11   View
5/5/2026  7:00 AM  CAN-BC-11  Prince George 11.0 SSW 0.63  0.13   View
5/5/2026  7:00 AM  CAN-QC-47  Sainte-Foy 1.8 ENE 0.13  0.03   View
5/5/2026  7:00 AM  CAN-SK-2  Regina 3.8 NW 0.50  0.03   View
5/5/2026  7:07 AM  NM-SF-70  Santa Fe 10.5 S 1.54  0.15   View
5/5/2026  7:30 AM  TX-HNT-11  Royse City 3.5 ENE 7.81  0.14   View
5/5/2026  8:00 AM  IN-MR-13  Speedway 6.2 SSW 2.16  0.06   View
5/5/2026  8:00 AM  PA-CH-41  Wickerton 0.4 NW 3.10  1.00   View
5/5/2026  8:00 AM  WV-CB-17  Huntington 1.7 ESE 4.52  0.17   View
5/5/2026  8:00 AM  WI-MW-18  West Allis 0.7 SSE 1.90  0.20   View
5/5/2026  8:30 AM  IL-HM-4  McLeansboro 7.8 SE 3.10  0.18   View
5/5/2026  8:45 AM  KS-SG-111  Wichita 5.9 WSW 1.22  0.21   View
Showing 40 Records.